CW6451 Weather Reports


time (UTC)temp
C
wind
direction
speed
KPH
gust
KPH
rain 1hr
cm
rain 24hr
cm
rain mn
cm
humidity
%
barometer
mb
20260507050044 10 171 3.2 12.9 0.00 0.53 0.00 99 1007.7
20260507044547 10 190 4.8 14.5 0.00 0.53 0.00 99 1007.6
20260507043038 11 186 4.8 9.7 0.00 0.53 0.00 99 1007.7
20260507041537 11 234 4.8 11.3 0.00 0.53 0.00 99 1007.6
20260507040036 11 194 4.8 16.1 0.00 0.53 0.00 99 1007.9
20260507034543 11 192 4.8 17.7 0.00 0.53 0.53 99 1007.9
20260507033044 11 179 4.8 14.5 0.00 0.53 0.53 99 1008.0
20260507031538 11 236 4.8 12.9 0.00 0.53 0.53 99 1008.2
20260507030039 11 186 4.8 17.7 0.00 0.53 0.53 99 1008.1
20260507024540 11 223 8.0 20.9 0.00 0.53 0.53 99 1008.2
20260507023044 11 210 8.0 20.9 0.00 0.53 0.53 99 1008.1
20260507021544 11 230 6.4 20.9 0.00 0.53 0.53 99 1008.3
20260507020041 11 182 8.0 24.1 0.00 0.53 0.53 99 1008.2
20260507014547 11 177 6.4 17.7 0.00 0.53 0.53 99 1008.5
20260507013037 11 223 8.0 24.1 0.00 0.53 0.53 99 1008.6
20260507011540 11 192 6.4 22.5 0.00 0.53 0.53 99 1008.7
20260507010038 11 229 11.3 20.9 0.00 0.53 0.53 99 1008.8
20260507004545 11 207 8.0 29.0 0.00 0.53 0.53 99 1008.9
20260507003039 11 235 9.7 22.5 0.00 0.53 0.53 99 1008.8
20260507001547 11 192 8.0 17.7 0.03 0.53 0.53 99 1008.8
20260507000038 11 234 4.8 19.3 0.03 0.53 0.53 99 1008.8
20260506234537 11 256 8.0 27.4 0.03 0.53 0.53 98 1008.7
20260506233037 11 213 4.8 19.3 0.08 0.53 0.53 98 1008.6
20260506231542 11 193 8.0 24.1 0.15 0.51 0.51 98 1008.5
20260506230041 11 213 11.3 24.1 0.23 0.51 0.51 98 1008.4
20260506224539 12 200 9.7 24.1 0.30 0.51 0.51 98 1008.4
20260506223108 12 195 9.7 30.6 0.28 0.46 0.46 98 1008.5
20260506221538 11 191 11.3 30.6 0.23 0.36 0.36 98 1008.7
20260506220040 11 216 11.3 22.5 0.15 0.28 0.28 97 1009.0
20260506214550 11 182 8.0 22.5 0.10 0.20 0.20 97 1009.2
20260506213040 11 183 8.0 24.1 0.10 0.18 0.18 96 1009.1
20260506211547 12 221 9.7 22.5 0.08 0.13 0.13 96 1009.2
20260506210037 12 178 9.7 19.3 0.08 0.13 0.13 96 1009.3
20260506204543 12 200 11.3 27.4 0.08 0.10 0.10 95 1009.4
20260506203045 12 204 11.3 20.9 0.08 0.08 0.08 95 1009.5
20260506201545 12 194 9.7 24.1 0.05 0.05 0.05 94 1009.5
20260506200047 12 190 8.0 33.8 0.05 0.05 0.05 95 1009.7
20260506194542 12 128 9.7 22.5 0.03 0.03 0.03 93 1009.8
20260506193039 12 183 11.3 24.1 0.00 0.00 0.00 91 1010.1
20260506191538 13 172 12.9 30.6 0.00 0.00 0.00 88 1010.3
20260506190044 13 196 9.7 22.5 0.00 0.00 0.00 88 1010.4
20260506184542 13 227 8.0 30.6 0.00 0.00 0.00 87 1010.6
20260506183039 13 198 12.9 35.4 0.00 0.00 0.00 87 1010.6
20260506181539 14 205 12.9 30.6 0.00 0.00 0.00 86 1010.7
20260506180046 14 183 12.9 27.4 0.00 0.00 0.00 86 1011.1
20260506174537 14 218 9.7 25.7 0.00 0.00 0.00 87 1011.4
20260506173041 13 237 9.7 33.8 0.00 0.00 0.00 86 1011.7
20260506171545 14 190 14.5 35.4 0.00 0.00 0.00 84 1011.6
20260506170041 15 203 11.3 30.6 0.00 0.00 0.00 84 1011.6
20260506164538 15 240 12.9 24.1 0.00 0.00 0.00 83 1011.9
20260506163039 14 236 11.3 24.1 0.00 0.00 0.00 85 1012.0
20260506161537 14 246 14.5 30.6 0.00 0.00 0.00 86 1012.3
20260506160038 14 200 9.7 25.7 0.00 0.00 0.00 85 1012.5
20260506154542 16 234 8.0 19.3 0.00 0.00 0.00 82 1012.8
20260506153038 16 213 8.0 24.1 0.00 0.00 0.00 83 1012.9
20260506151538 16 206 9.7 22.5 0.00 0.00 0.00 83 1012.8
20260506150038 15 186 8.0 22.5 0.00 0.00 0.00 84 1013.2
20260506144551 15 111 8.0 19.3 0.00 0.00 0.00 86 1012.8
20260506143044 14 202 9.7 24.1 0.00 0.00 0.00 87 1013.0
20260506141538 14 181 11.3 20.9 0.00 0.00 0.00 86 1012.8
20260506140038 14 225 9.7 30.6 0.00 0.00 0.00 87 1012.5
20260506134545 13 182 11.3 37.0 0.00 0.00 0.00 87 1012.8
20260506133042 13 244 12.9 32.2 0.00 0.00 0.00 88 1013.1
20260506131544 13 188 8.0 25.7 0.00 0.00 0.00 88 1013.0
20260506130044 13 232 9.7 24.1 0.00 0.00 0.00 87 1013.0
20260506124540 13 191 8.0 20.9 0.00 0.00 0.00 88 1013.0
20260506123039 13 207 8.0 17.7 0.00 0.00 0.00 89 1012.9
20260506121538 13 181 4.8 14.5 0.00 0.00 0.00 90 1013.0
20260506120038 13 229 6.4 14.5 0.00 0.00 0.00 92 1012.9
20260506114539 12 227 6.4 16.1 0.00 0.00 0.00 93 1013.1
20260506113038 12 196 6.4 12.9 0.00 0.00 0.00 94 1013.2
20260506111537 12 192 4.8 14.5 0.00 0.00 0.00 94 1013.2
20260506110039 12 194 8.0 20.9 0.00 0.00 0.00 94 1013.1
20260506104537 12 142 11.3 19.3 0.00 0.00 0.00 95 1012.9
20260506103038 11 203 6.4 20.9 0.00 0.00 0.00 95 1012.9
20260506101541 11 255 8.0 17.7 0.00 0.00 0.00 95 1013.0
20260506100038 11 188 6.4 19.3 0.00 0.00 0.00 96 1012.9
20260506094538 11 216 9.7 22.5 0.00 0.00 0.00 96 1012.8
20260506093041 11 201 8.0 22.5 0.00 0.00 0.00 96 1012.9
20260506091545 11 209 8.0 30.6 0.00 0.00 0.00 96 1013.0
20260506090039 11 223 8.0 22.5 0.00 0.00 0.00 96 1013.0
20260506084540 11 238 6.4 19.3 0.00 0.00 0.00 95 1013.1
20260506083042 11 181 11.3 25.7 0.00 0.00 0.00 95 1013.2
20260506081544 11 229 6.4 22.5 0.00 0.00 0.00 95 1013.2
20260506073055 11 182 9.7 25.7 0.00 0.00 0.00 95 1013.2
20260506071541 11 212 8.0 24.1 0.00 0.00 0.00 95 1013.2
20260506061545 11 218 9.7 22.5 0.00 0.00 0.00 94 1013.3